Location: Newark
(40.7066°N, 111.8219°W)
Time: 21:09:26
(UTC+00:00)

Transit 2A Rocket - Pass Details

Date: 28 November 2019
Orbit: 594 x 909 km, 66.7° (Epoch: 12 December)

Event Time Altitude Azimuth Distance (km) Brightness Sun altitude
Rises 13:21:29 0° 305° (NW) 2,893 - -12.6°
Reaches altitude 10° 13:25:50 10° 264° (W) 2,042 - -11.8°
Maximum altitude 13:26:35 10° 254° (WSW) 2,029 - -11.7°
Exits shadow 13:26:41 10° 253° (WSW) 2,031 6.7 -11.6°
Drops below altitude 10° 13:27:20 10° 245° (WSW) 2,065 6.8 -11.5°
Sets 13:31:56 0° 205° (SSW) 3,062 8.1 -10.7°
